Regional Weather Roundup
Issued by NWS

Home | Current Version | Previous Version | Graphics & Text | Print | Product List | Glossary On
Versions: 1 2 3 4 5 6 7 8 9 10 11 12 13 14 15 16 17 18 19 20 21 22 23 24 25 26 27 28 29 30 31 32 33 34 35 36 37 38 39 40 41 42 43 44 45 46 47 48 49 50
846
ASUS45 KSLC 011310
RWRUT

UTAH REGIONAL WEATHER ROUNDUP
NATIONAL WEATHER SERVICE SALT LAKE CITY UT
700 AM MDT SUN MAY 01 2016

UTZ001>011-023>025-011400-

NORTHERN UTAH

CITY           SKY/WX    TMP DP  RH WIND       PRES   REMARKS
BRIGHAM CITY   CLOUDY    48  22  35 E18G37    30.10R
HILL AFB       MOCLDY    44  24  44 E30G41    30.01R
LOGAN          CLOUDY    47  24  40 E20G40    30.15R
OGDEN          MOCLDY    47  23  38 NE8       30.06R
PROVO AIRPORT  MOCLDY    46  21  36 VRB6      30.02S
SALT LAKE CITY MOCLDY    49  23  36 E23       30.04R
VERNAL         CLOUDY    40  22  48 NE17G31   30.13R WCI  31
WENDOVER       PTCLDY    45  28  53 N20G25    30.07R
HEBER CITY     MOCLDY    36  28  75 CALM      30.07R

$$

UTZ012>022-026-027-011400-

SOUTHERN/CENTRAL UTAH

CITY           SKY/WX    TMP DP  RH WIND       PRES   REMARKS
BLANDING       CLOUDY    40  35  83 E10       30.01R WCI  34
BRYCE CANYON   CLEAR     29  23  78 NW8       29.97S WCI  21
CEDAR CITY     MOCLDY    34  32  92 SE3       29.94S
DELTA          PTCLDY    37  27  65 NE10      29.99R WCI  30
HANKSVILLE     CLOUDY    41  32  70 CALM      30.02R
MILFORD        CLOUDY    37  34  89 NE8       29.95S WCI  31
MOAB/CYNLANDS  CLEAR     36  30  79 CALM      29.98R
PRICE          PTCLDY    38  21  50 NE21G35   30.03S WCI  28
ST GEORGE      PTSUNNY   46  39  76 S3        29.91R
KANAB          CLEAR     39  34  81 N5        29.95R

$$

REGIONAL REPORTS     COLORADO/ARIZONA

CITY           SKY/WX    TMP DP  RH WIND       PRES   REMARKS
CRAIG, CO      CLEAR     35  22  58 NE12      30.14R WCI  27
GRAND JUNCTION CLOUDY    38  29  70 VRB5      30.00R WCI  34
RIFLE          CLOUDY    36  25  64 CALM      30.06R
MONTROSE       CLOUDY    36  28  73 N3        30.03R
CORTEZ         LGT RAIN  37  35  92 SW8       29.97R WCI  31
PAGE, AZ       CLOUDY    49  34  56 CALM      29.88R
GRAND CANYON   CLOUDY    38  34  85 NE6       29.90R WCI  33
KINGMAN        MOCLDY    46  42  86 CALM      29.86R
FLAGSTAFF      LGT SNOW  32  32 100 CALM      29.89R FOG

$$

REGIONAL REPORTS    NEVADA/IDAHO/WYOMING

CITY           SKY/WX    TMP DP  RH WIND       PRES   REMARKS
LAS VEGAS, NV  PTCLDY    54  47  77 S5        29.82R
ELY            CLOUDY    37  32  82 N14       30.02S WCI  28
ELKO           CLOUDY    44  36  73 NE9       30.05R
POCATELLO, ID  CLOUDY    39  32  76 NE7       30.19R WCI  34
BURLEY         MOCLDY    41  36  82 E9        30.13R
EVANSTON, WY   CLOUDY    32  24  72 E23G37    30.16R WCI  19
ROCK SPRINGS   CLOUDY    32  24  72 NE24      30.22R WCI  19

$$




USA.gov is the U.S. government's official web portal to all federal, state and local government web resources and services.